TimeMST,TemperatureF,Dew PointF,Humidity,Sea Level PressureIn,VisibilityMPH,Wind Direction,Wind SpeedMPH,Gust SpeedMPH,PrecipitationIn,Events,Conditions,WindDirDegrees,DateUTC
12:53 AM,82.9,26.1,13,29.75,10.0,South,5.8,-,N/A,,Clear,190,2013-06-13 07:53:00
1:53 AM,82.9,26.1,13,29.75,10.0,SSW,4.6,-,N/A,,Clear,200,2013-06-13 08:53:00
2:53 AM,79.0,27.0,15,29.75,10.0,South,5.8,-,N/A,,Clear,170,2013-06-13 09:53:00
3:53 AM,78.1,27.0,15,29.75,10.0,SSE,6.9,-,N/A,,Clear,160,2013-06-13 10:53:00
4:53 AM,79.0,28.0,15,29.76,10.0,South,8.1,-,N/A,,Clear,170,2013-06-13 11:53:00
5:53 AM,78.1,28.9,17,29.77,10.0,SSE,4.6,-,N/A,,Clear,150,2013-06-13 12:53:00
6:53 AM,79.0,30.9,17,29.77,10.0,South,3.5,-,N/A,,Clear,170,2013-06-13 13:53:00
7:53 AM,82.9,32.0,16,29.79,10.0,South,6.9,-,N/A,,Clear,190,2013-06-13 14:53:00
8:53 AM,88.0,33.1,14,29.79,10.0,South,10.4,19.6,N/A,,Clear,180,2013-06-13 15:53:00
9:53 AM,88.0,33.1,14,29.79,10.0,Variable,3.5,-,N/A,,Clear,0,2013-06-13 16:53:00
10:53 AM,93.9,28.0,10,29.77,10.0,SSW,13.8,25.3,N/A,,Clear,210,2013-06-13 17:53:00
11:53 AM,96.1,30.0,10,29.74,10.0,WSW,13.8,21.9,N/A,,Clear,240,2013-06-13 18:53:00
12:53 PM,96.1,30.9,10,29.72,10.0,WSW,8.1,27.6,N/A,,Clear,240,2013-06-13 19:53:00
1:53 PM,99.0,28.9,8,29.69,10.0,SW,16.1,26.5,N/A,,Clear,230,2013-06-13 20:53:00
2:53 PM,98.1,24.1,7,29.68,8.0,SW,17.3,34.5,N/A,,Clear,220,2013-06-13 21:53:00
3:53 PM,98.1,19.9,6,29.66,10.0,SSW,16.1,27.6,N/A,,Clear,210,2013-06-13 22:53:00
4:53 PM,98.1,16.0,5,29.65,10.0,SW,10.4,19.6,N/A,,Clear,230,2013-06-13 23:53:00
5:53 PM,97.0,1.0,4,29.64,10.0,West,9.2,23.0,N/A,,Clear,260,2013-06-14 00:53:00
6:53 PM,93.9,-2.0,4,29.65,10.0,WSW,11.5,20.7,N/A,,Clear,240,2013-06-14 01:53:00
7:53 PM,91.0,-4.0,4,29.67,10.0,Variable,5.8,16.1,N/A,,Clear,0,2013-06-14 02:53:00
8:53 PM,89.1,-4.0,4,29.68,10.0,SW,5.8,-,N/A,,Clear,220,2013-06-14 03:53:00
9:53 PM,84.0,1.9,4,29.72,10.0,NNW,3.5,-,N/A,,Clear,330,2013-06-14 04:53:00
10:53 PM,80.1,7.0,6,29.73,10.0,West,4.6,-,N/A,,Clear,260,2013-06-14 05:53:00
11:53 PM,82.0,7.0,6,29.73,10.0,West,5.8,-,N/A,,Clear,260,2013-06-14 06:53:00